Regional Weather Roundup
Issued by NWS

Home | Current Version | Previous Version | Graphics & Text | Print | Product List | Glossary On
Versions: 1 2 3 4 5 6 7 8 9 10 11 12 13 14 15 16 17 18 19 20 21 22 23 24 25 26 27 28 29 30 31 32 33 34 35 36 37 38 39 40 41 42 43 44 45 46 47 48 49 50
000
ASUS43 KOAX 051202
RWRNE

WEATHER ROUNDUP FOR NEBRASKA
NATIONAL WEATHER SERVICE OMAHA NE
600 AM CST MON DEC 05 2016

NOTES: SATELLITE DATA IS BEING USED TO AUGMENT CLOUD COVER ABOVE
       12000 FEET.
       "FAIR" INDICATES FEW OR NO CLOUDS BELOW 12,000 FEET WITH NO
       SIGNIFICANT WEATHER AND/OR OBSTRUCTIONS TO VISIBILITY.

  * THESE STATIONS DO NOT REPORT WEATHER SUCH AS RAIN...SNOW OR FOG.

NEZ001>004-019>022-054>056-051300-
NEBRASKA PANHANDLE

CITY           SKY/WX    TMP DP  RH WIND       PRES   REMARKS
SCOTTSBLUFF    CLOUDY    46  22  38 W12       29.54F
6HR MIN TEMP:  37; 6HR MAX TEMP:  47;

ALLIANCE       CLOUDY    41  21  44 SW8       29.53F
6HR MIN TEMP:  30; 6HR MAX TEMP:  42;

CHADRON        MOCLDY    42  23  46 SW9       29.50F
6HR MIN TEMP:  37; 6HR MAX TEMP:  47;

KIMBALL        CLOUDY    29  21  73 W6        29.57F WCI  23
SIDNEY         CLOUDY    30  17  58 SW7       29.57F WCI  23
6HR MIN TEMP:  30; 6HR MAX TEMP:  41;

$$

NEZ057>060-069>072-079>082-051300-
SOUTHWEST NEBRASKA

CITY           SKY/WX    TMP DP  RH WIND       PRES   REMARKS
NORTH PLATTE   CLOUDY    33  21  61 CALM      29.60F
6HR MIN TEMP:  31; 6HR MAX TEMP:  38;

IMPERIAL       CLOUDY    30  18  60 S8        29.57F WCI  22
6HR MIN TEMP:  27; 6HR MAX TEMP:  36;

LEXINGTON      PTCLDY    33  23  66 S7        29.64F WCI  27
MCCOOK         PTCLDY    25  19  78 CALM      29.62F
6HR MIN TEMP:  25; 6HR MAX TEMP:  39;

OGALLALA       CLOUDY    33  23  66 CALM      29.57F
$$

NEZ005>010-023>029-035>040-094-051300-
NORTH CENTRAL NEBRASKA

CITY           SKY/WX    TMP DP  RH WIND       PRES   REMARKS
VALENTINE      CLOUDY    37  20  50 SW9       29.52F WCI  30
6HR MIN TEMP:  30; 6HR MAX TEMP:  37;

AINSWORTH      CLOUDY    37  22  53 S7        29.53F WCI  32
BROKEN BOW     CLOUDY    35  22  58 S5        29.61F WCI  31
6HR MIN TEMP:  34; 6HR MAX TEMP:  39;

O`NEILL        MOCLDY    35  22  59 S9        29.58F WCI  28
ORD            CLOUDY    37  21  52 S7        29.62F WCI  32
6HR MIN TEMP:  34; 6HR MAX TEMP:  37;

THEDFORD       CLOUDY    44  20  38 S8        29.57S
$$

NEZ041-046>049-061>064-073>077-083>087-051300-
SOUTH CENTRAL NEBRASKA

CITY           SKY/WX    TMP DP  RH WIND       PRES   REMARKS
GRAND ISLAND   CLOUDY    38  27  64 S10       29.68F WCI  31
6HR MIN TEMP:  36; 6HR MAX TEMP:  40;

AURORA         CLEAR     36  28  73 S12G18    29.69F WCI  28
HASTINGS       CLOUDY    36  26  67 S7        29.70F WCI  30
6HR MIN TEMP:  35; 6HR MAX TEMP:  38;

HEBRON         PTCLDY    34  27  74 S6        29.76F WCI  29
HOLDREGE       CLOUDY    32  24  72 S7        29.65F WCI  26
KEARNEY *      PTCLDY    30  23  74 S8        29.67F WCI  23
YORK           PTCLDY    32  28  86 S13       29.71F WCI  22
$$

NEZ011>018-030>034-042>045-051300-
NORTHEAST NEBRASKA

CITY           SKY/WX    TMP DP  RH WIND       PRES   REMARKS
NORFOLK        CLOUDY    37  26  64 S14G23    29.66S WCI  28
6HR MIN TEMP:  32; 6HR MAX TEMP:  37;

ALBION         CLOUDY    37  27  67 S9        29.67S WCI  30
BLAIR          CLOUDY    35  31  88 S12       29.76F WCI  26
FREMONT        MOCLDY    32  29  89 SE3       29.76F
TEKAMAH        PTCLDY    32  29  88 SE8       29.76F WCI  25
6HR MIN TEMP:  31; 6HR MAX TEMP:  34;

WAYNE          CLOUDY    37  30  76 S13       29.66F WCI  29
$$

NEZ050>053-065>068-078-088>093-051300-
SOUTHEAST NEBRASKA

CITY           SKY/WX    TMP DP  RH WIND       PRES   REMARKS
LINCOLN        PTCLDY    36  29  75 S12       29.76F WCI  28
6HR MIN TEMP:  29; 6HR MAX TEMP:  36;

OMAHA EPPLEY   CLOUDY    35  30  82 SE14      29.80S WCI  26
6HR MIN TEMP:  29; 6HR MAX TEMP:  35;

BEATRICE       CLEAR     34  30  85 S9        29.78F WCI  26
FALLS CITY     CLOUDY    33  30  88 S12       29.85S WCI  24
6HR MIN TEMP:  32; 6HR MAX TEMP:  35;

NEBRASKA CITY  PTCLDY    35  30  82 S15       29.80F WCI  25
PLATTSMOUTH    PTCLDY    33  29  83 SE9       29.79S WCI  26
$$

NEZ044-045-051>053-067-051300-
OMAHA AREA

CITY           SKY/WX    TMP DP  RH WIND       PRES   REMARKS
OMAHA EPPLEY   CLOUDY    35  30  82 SE14      29.80S WCI  26
6HR MIN TEMP:  29; 6HR MAX TEMP:  35;

BLAIR          CLOUDY    35  31  88 S12       29.76F WCI  26
FREMONT        MOCLDY    32  29  89 SE3       29.76F
MILLARD        CLOUDY    35  31  85 CALM      29.78F
OFFUTT AFB     CLOUDY    33  33 100 SE3       29.78F
PLATTSMOUTH    PTCLDY    33  29  83 SE9       29.79S WCI  26
WAHOO          FAIR      34  29  83 S9        29.75F WCI  26
$$



USA.gov is the U.S. government's official web portal to all federal, state and local government web resources and services.